Weather History for Reading, PA

Change the Weather History Date:

Saturday, November 9, 2013

  Actual Average Record
Temperature  
Mean Temperature 41 °F 46 °F  
Max Temperature 51 °F 56 °F 76 °F (1975)
Min Temperature 31 °F 37 °F 19 °F (1971)
Degree Days  
Heating Degree Days 24 19  
Month to date heating degree days 151 156  
Since 1 July heating degree days 516 594  
Cooling Degree Days 0 0  
Month to date cooling degree days 0 0  
Year to date cooling degree days 1124 896  
Moisture  
Dew Point 28 °F    
Average Humidity 61    
Maximum Humidity 82    
Minimum Humidity 39    
Precipitation  
Precipitation 0.00 in 0.10 in 2.85 in (1996)
Month to date precipitation 0.38 1.01  
Year to date precipitation 35.60 37.53  
Sea Level Pressure  
Sea Level Pressure 30.21 in    
Wind  
Wind Speed 5 mph (SSW)    
Max Wind Speed 14 mph    
Max Gust Speed 22 mph    
Visibility 10 miles    
Events      
T = Trace of Precipitation, MM = Missing Value Source: NWS Daily Summary

Daily Weather History Graph

Daily Weather History Graph

Search for Another Location

Airport:

Trip Planner

Search our weather history database for the weather conditions in past years. The results will help you decide how hot, cold, wet, or windy it might be!

Date:

Astronomy

Nov. 09, 2013 Rise Set
Actual Time 6:43 AM EST 4:51 PM EST
Civil Twilight 6:14 AM EST 5:20 PM EST
Nautical Twilight 5:41 AM EST 5:53 PM EST
Astronomical Twilight 5:09 AM EST 6:25 PM EST
Moon 12:18 PM EST (11/9) 11:19 PM EST (11/9)
Length of Visible Light 11h 06m
Length of Day
10h 08m
Waxing Crescent, 44% of the Moon is Illuminated
Nov 9
Waxing Crescent
Nov 10
First Quarter
Nov 17
Full
Nov 25
Last Quarter
Dec 2
New

Hourly Weather History & Observations

Time (EST) Temp. Windchill Dew Point Humidity Pressure Visibility Wind Dir Wind Speed Gust Speed Precip Events Conditions
12:54 AM 39.0 °F 32.8 °F 26.1 °F 60% 30.30 in 10.0 mi West 9.2 mph - N/A   Scattered Clouds
1:54 AM 39.0 °F 32.8 °F 26.1 °F 60% 30.30 in 10.0 mi West 9.2 mph - N/A   Overcast
2:54 AM 37.0 °F 33.3 °F 25.0 °F 62% 30.30 in 10.0 mi West 4.6 mph - N/A   Scattered Clouds
3:54 AM 35.1 °F 32.2 °F 26.1 °F 70% 30.31 in 10.0 mi West 3.5 mph - N/A   Mostly Cloudy
4:54 AM 33.1 °F - 25.0 °F 72% 30.32 in 10.0 mi Calm Calm - N/A   Clear
5:54 AM 32.0 °F - 25.0 °F 75% 30.33 in 10.0 mi Calm Calm - N/A   Clear
6:54 AM 32.0 °F - 26.1 °F 79% 30.32 in 10.0 mi Calm Calm - N/A   Clear
7:54 AM 34.0 °F - 28.0 °F 79% 30.34 in 10.0 mi Calm Calm - N/A   Clear
8:54 AM 39.0 °F - 28.0 °F 65% 30.34 in 10.0 mi Calm Calm - N/A   Clear
9:54 AM 43.0 °F 40.3 °F 27.0 °F 53% 30.32 in 10.0 mi SW 4.6 mph - N/A   Clear
10:54 AM 46.0 °F 42.5 °F 27.0 °F 47% 30.29 in 10.0 mi Variable 6.9 mph - N/A   Clear
11:54 AM 48.0 °F - 27.0 °F 44% 30.25 in 10.0 mi Variable 6.9 mph - N/A   Clear
12:54 PM 48.9 °F - 28.0 °F 44% 30.21 in 10.0 mi SW 9.2 mph - N/A   Clear
1:54 PM 50.0 °F - 28.9 °F 44% 30.17 in 10.0 mi South 10.4 mph - N/A   Clear
2:54 PM 50.0 °F - 28.0 °F 43% 30.14 in 10.0 mi South 10.4 mph - N/A   Clear
3:54 PM 50.0 °F - 26.1 °F 39% 30.12 in 10.0 mi South 10.4 mph - N/A   Clear
4:54 PM 48.9 °F - 27.0 °F 43% 30.12 in 10.0 mi South 10.4 mph - N/A   Clear
5:54 PM 46.9 °F - 28.0 °F 48% 30.11 in 10.0 mi South 8.1 mph - N/A   Clear
6:54 PM 45.0 °F 41.2 °F 28.9 °F 53% 30.10 in 10.0 mi South 6.9 mph - N/A   Clear
7:54 PM 44.1 °F - 28.9 °F 55% 30.09 in 10.0 mi Calm Calm - N/A   Clear
8:54 PM 42.1 °F - 28.9 °F 60% 30.08 in 10.0 mi Calm Calm - N/A   Clear
9:54 PM 43.0 °F 40.3 °F 30.9 °F 62% 30.04 in 10.0 mi SSE 4.6 mph - N/A   Clear
10:54 PM 41.0 °F - 30.9 °F 67% 30.03 in 10.0 mi Calm Calm - N/A   Partly Cloudy
11:54 PM 42.1 °F 39.2 °F 30.0 °F 62% 30.00 in 10.0 mi South 4.6 mph - N/A   Clear